sat.trackr.live / text

‹ back to catalog

BEIDOU-3 G1 (PRN 130)

NORAD 43683 · 2018-085A

PAYLOAD ACTIVE UNKNOWN

§ Identity

Operator
Country
PRC
Launch date
2018-11-01
Launch site
XICLF
Launch vehicle
Mass (kg)
RCS (m²)

Purposes: comms, nav

External: N2YO · Heavens-Above · Gunter

§ Orbital elements

Epoch: 2026-09-20T03:59:46.233312Z

Period
1,436.09 min
Inclination
2.6282°
Eccentricity
0.0006084
Mean motion
1.00272344 rev/d
Perigee alt
35,760.8 km
Apogee alt
35,812.1 km
Semi-major
42,164.6 km
B*
0.0000e+0
RAAN
94.6851°
Arg perigee
21.4173°
Mean anomaly
102.9880°
Rev number
2,901

§ Raw data

BEIDOU-3 G1 (PRN 130)1 43683U 18085A   26263.16650733 -.00000112  00000+0  00000+0 0  99992 43683   2.6282  94.6851 0006084  21.4173 102.9880  1.00272344 29018

JSON: /api/v1/satellites/43683 · /tle

For live sub-satellite position, see the globe view (requires WebGL).

§ Visibility from observer

Set your observer location to see the next 7 days of passes ≥ 10°. The values pass through the URL so the page stays shareable.

No JS? Fill the form by hand. The geolocation button needs JavaScript.